Santa Ana, CA

3:03 AM PDT on June 23, 2017 (GMT -0700)
John Wayne-Orange County

Weather History for KSNA - July, 2012

Change the Weather History Date:

Sunday, July 29, 2012

  Actual Average Record
Temperature  
Mean Temperature 70 °F 72 °F  
Max Temperature 77 °F 79 °F 86 °F (2014)
Min Temperature 63 °F 65 °F 62 °F (1999)
Degree Days  
Heating Degree Days 0 0  
Month to date heating degree days 0 0  
Since 1 June heating degree days 0 7  
Since 1 July heating degree days 0 0  
Cooling Degree Days 5 7  
Month to date cooling degree days 171 177  
Year to date cooling degree days 327 320  
Since 1 June cooling degree days 257 253  
Growing Degree Days 18 (Base 50)    
Moisture  
Dew Point 58 °F    
Average Humidity 70    
Maximum Humidity 90    
Minimum Humidity 50    
Precipitation  
Precipitation 0.00 in 0.01 in 0.01 in (2003)
Month to date precipitation 0.16 0.04  
Year to date precipitation 4.03 9.00  
Since 1 July precipitation 0.16  
Snow  
Snow 0.00 in - - ()
Month to date snowfall 0.0  
Year to date snowfall 0.0  
Snow Depth 0.00 in    
Sea Level Pressure  
Sea Level Pressure 29.95 in    
Wind  
Wind Speed 5 mph (SSW)    
Max Wind Speed 13 mph    
Max Gust Speed 16 mph    
Visibility 10 miles    
Events      
T = Trace of Precipitation, MM = Missing Value Source: NWS Daily Summary

Daily Weather History Graph

Daily Weather History Graph

Search for Another Location

Airport or City:

Trip Planner

Search our weather history database for the weather conditions in past years. The results will help you decide how hot, cold, wet, or windy it might be!

Date:

Astronomy

Jul. 29, 2012 Rise Set
Actual Time 6:01 AM PDT 7:53 PM PDT
Civil Twilight 5:34 AM PDT 8:20 PM PDT
Nautical Twilight 5:01 AM PDT 8:54 PM PDT
Astronomical Twilight 4:25 AM PDT 9:29 PM PDT
Moon 5:01 PM PDT (7/29) 2:23 AM PDT (7/29)
Length of Visible Light 14h 46m
Length of Day
13h 51m
Waxing Gibbous, 86% of the Moon is Illuminated
Jul 29
Waxing Gibbous
Aug 1
Full
Aug 9
Last Quarter
Aug 17
New
Aug 24
First Quarter

Hourly Weather History & Observations

Time (PDT) Temp. Dew Point Humidity Pressure Visibility Wind Dir Wind Speed Gust Speed Precip Events Conditions
12:53 AM 64.0 °F 57.9 °F 80% 29.95 in 10.0 mi South 3.5 mph - N/A   Clear
1:53 AM 63.0 °F 59.0 °F 87% 29.95 in 10.0 mi South 3.5 mph - N/A   Clear
2:53 AM 63.0 °F 59.0 °F 87% 29.94 in 10.0 mi SW 3.5 mph - N/A   Clear
3:25 AM 62.6 °F 59.0 °F 88% 29.95 in 10.0 mi SSW 4.6 mph - N/A   Scattered Clouds
3:34 AM 62.6 °F 59.0 °F 88% 29.95 in 8.0 mi SW 4.6 mph - N/A   Mostly Cloudy
3:53 AM 63.0 °F 59.0 °F 87% 29.95 in 8.0 mi Calm Calm - N/A   Overcast
4:13 AM 62.6 °F 59.0 °F 88% 29.95 in 10.0 mi Calm Calm - N/A   Overcast
4:53 AM 64.0 °F 57.9 °F 80% 29.95 in 10.0 mi SSE 3.5 mph - N/A   Overcast
5:53 AM 63.0 °F 57.0 °F 81% 29.97 in 10.0 mi SE 3.5 mph - N/A   Overcast
6:53 AM 63.0 °F 57.0 °F 81% 29.98 in 8.0 mi SE 4.6 mph - N/A   Overcast
7:12 AM 62.6 °F 57.2 °F 82% 29.99 in 8.0 mi Calm Calm - N/A   Overcast
7:53 AM 63.0 °F 57.0 °F 81% 29.99 in 8.0 mi ESE 4.6 mph - N/A   Overcast
8:53 AM 64.0 °F 57.0 °F 78% 30.00 in 10.0 mi ESE 4.6 mph - N/A   Overcast
9:13 AM 64.4 °F 57.2 °F 77% 30.00 in 10.0 mi Calm Calm - N/A   Overcast
9:53 AM 68.0 °F 57.9 °F 70% 29.99 in 10.0 mi Calm Calm - N/A   Overcast
10:14 AM 69.8 °F 57.2 °F 64% 29.99 in 10.0 mi Calm Calm - N/A   Scattered Clouds
10:53 AM 72.0 °F 57.9 °F 61% 29.99 in 10.0 mi Variable 3.5 mph - N/A   Partly Cloudy
11:53 AM 73.9 °F 59.0 °F 59% 29.97 in 10.0 mi SW 9.2 mph - N/A   Partly Cloudy
12:53 PM 73.9 °F 59.0 °F 59% 29.97 in 10.0 mi SW 10.4 mph - N/A   Partly Cloudy
1:53 PM 75.0 °F 59.0 °F 57% 29.95 in 10.0 mi SW 8.1 mph - N/A   Partly Cloudy
2:49 PM 75.2 °F 57.2 °F 53% 29.93 in 10.0 mi WSW 8.1 mph - N/A   Partly Cloudy
2:53 PM 75.0 °F 57.9 °F 55% 29.93 in 10.0 mi SW 9.2 mph - N/A   Partly Cloudy
3:53 PM 75.9 °F 55.9 °F 50% 29.91 in 10.0 mi WSW 8.1 mph - N/A   Partly Cloudy
4:53 PM 75.0 °F 57.0 °F 53% 29.90 in 10.0 mi SW 8.1 mph - N/A   Clear
5:48 PM 73.4 °F 57.2 °F 57% 29.90 in 10.0 mi WSW 8.1 mph - N/A   Partly Cloudy
5:53 PM 73.0 °F 57.9 °F 59% 29.89 in 10.0 mi WSW 8.1 mph - N/A   Partly Cloudy
6:53 PM 71.1 °F 59.0 °F 66% 29.91 in 10.0 mi SW 6.9 mph - N/A   Partly Cloudy
7:53 PM 69.1 °F 59.0 °F 70% 29.93 in 10.0 mi SW 8.1 mph - N/A   Partly Cloudy
8:53 PM 66.9 °F 59.0 °F 76% 29.94 in 10.0 mi SW 4.6 mph - N/A   Partly Cloudy
9:53 PM 66.0 °F 60.1 °F 81% 29.96 in 10.0 mi South 5.8 mph - N/A   Partly Cloudy
10:53 PM 66.0 °F 60.1 °F 81% 29.96 in 8.0 mi SSW 4.6 mph - N/A   Partly Cloudy
11:53 PM 64.9 °F 60.1 °F 84% 29.96 in 10.0 mi SSW 4.6 mph - N/A   Clear